Location: Cudham
(51.3000°N, 0.0667°E)
Time: 20:07:29
(UTC+00:00)

Cosmos 2219 Rocket - Pass Details

Date: 19 May 2025
Orbit: 828 x 844 km, 71.0° (Epoch: 20 June)

Event Time Altitude Azimuth Distance (km) Brightness Sun altitude
Rises 22:18:39 0° 330° (NNW) 3,402 7.2 -15.6°
Reaches altitude 10° 22:21:38 10° 345° (NNW) 2,462 6.0 -15.8°
Maximum altitude 22:26:04 23° 37° (NE) 1,710 4.1 -16.0°
Drops below altitude 10° 22:30:28 10° 89° (E) 2,445 4.4 -16.3°
Enters shadow 22:32:26 - 100° (E) 3,048 4.8 -16.4°
